Regional Weather Roundup
Issued by NWS

Home | Current Version | Previous Version | Text Only | Print | Product List | Glossary On
Versions: 1 2 3 4 5 6 7 8 9 10 11 12 13 14 15 16 17 18 19 20 21 22 23 24 25 26 27 28 29 30 31 32 33 34 35 36 37 38 39 40 41 42 43 44 45 46 47 48 49 50
000
ASUS43 KTOP 300559
RWRKS

WEATHER ROUNDUP FOR KANSAS
NATIONAL WEATHER SERVICE GOODLAND KS
100 AM CDT TUE SEP 30 2014

NOTE:  "FAIR" INDICATES FEW OR NO CLOUDS BELOW 12,000 FEET WITH NO
SIGNIFICANT WEATHER AND/OR OBSTRUCTIONS TO VISIBILITY.

KSZ001>006-013>018-027>032-041>047-300700-
NORTHWEST KANSAS

CITY           SKY/WX    TMP DP  RH WIND       PRES   REMARKS
GOODLAND       CLEAR     56  54  93 S17       29.83S
6HR MIN TEMP:  56; 6HR MAX TEMP:  75; 6HR PCP:  0.35;

HAYS           CLOUDY    68  54  60 SE12      29.88F
HILL CITY      CLOUDY    62  59  90 E9        29.82F
6HR MIN TEMP:  62; 6HR MAX TEMP:  81; 6HR PCP:  0.04;

RUSSELL        CLOUDY    68  56  65 SE13      29.88F
6HR MIN TEMP:  67; 6HR MAX TEMP:  77;

$$

KSZ061>065-074>080-084>089-300700-
SOUTHWEST KANSAS

CITY           SKY/WX    TMP DP  RH WIND       PRES   REMARKS
DODGE CITY     CLOUDY    70  52  52 S17       29.87F
6HR MIN TEMP:  70; 6HR MAX TEMP:  78;

ELKHART          N/A     63  59  87 W5          N/A
GARDEN CITY    LGT RAIN  63  58  83 S9        29.89R
6HR MIN TEMP:  62; 6HR MAX TEMP:  78; 6HR PCP:  0.03;

GREAT BEND     CLOUDY    66  54  63 S12       29.90F
LIBERAL        CLOUDY    66  57  72 SE10      29.91F
$$

KSZ066>073-081>083-090>101-300700-
SOUTHEAST KANSAS

CITY           SKY/WX    TMP DP  RH WIND       PRES   REMARKS
CHANUTE        PTCLDY    63  60  90 SE3       29.96R
6HR MIN TEMP:  62; 6HR MAX TEMP:  76;

COFFEYVILLE    PTCLDY    62  59  90 CALM      29.95S
6HR MIN TEMP:  61; 6HR MAX TEMP:  79;

HUTCHINSON     MOCLDY    68  57  68 SE7       29.93F
6HR MIN TEMP:  68; 6HR MAX TEMP:  79;

MEDICINE LODGE   N/A     70  56  61 S8        29.92S
NEWTON         MOCLDY    64  55  72 SE8       29.97S
PARSONS        PTCLDY    61  59  93 CALM      29.96S
6HR MIN TEMP:  60; 6HR MAX TEMP:  76;

WICHITA INTL   PTCLDY    68  57  68 SE9       29.93F
6HR MIN TEMP:  68; 6HR MAX TEMP:  80;

WICHITA JABRA  PTCLDY    65  58  78 SE5       29.94F
6HR MIN TEMP:  65; 6HR MAX TEMP:  79;

WINFIELD       PTCLDY    67  58  72 SE6       29.95S
6HR MIN TEMP:  66; 6HR MAX TEMP:  78;

$$

KSZ007>012-019>026-033>040-048>060-102>105-300700-
NORTHEAST KANSAS

CITY           SKY/WX    TMP DP  RH WIND       PRES   REMARKS
CONCORDIA      MOCLDY    68  59  73 S12       29.92F
6HR MIN TEMP:  64; 6HR MAX TEMP:  74;

EMPORIA        MOCLDY    63  60  90 S7        29.96R
6HR MIN TEMP:  63; 6HR MAX TEMP:  75;

LAWRENCE       CLEAR     61  57  87 CALM      29.96S
6HR MIN TEMP:  60; 6HR MAX TEMP:  76;

MANHATTAN      MOCLDY    67  59  75 CALM      29.94S
6HR MIN TEMP:  67; 6HR MAX TEMP:  80;

OLATHE IND     CLEAR     64  59  83 SE5       29.97S
6HR MIN TEMP:  64; 6HR MAX TEMP:  78;

OLATHE EXE     CLEAR     67  60  78 CALM      29.97R
6HR MIN TEMP:  65; 6HR MAX TEMP:  78;

SALINA         MOCLDY    69  59  70 SE8       29.92F
6HR MIN TEMP:  68; 6HR MAX TEMP:  79;

TOPEKA BILLARD PTCLDY    67  61  81 E3        29.96R
6HR MIN TEMP:  66; 6HR MAX TEMP:  78;

TOPEKA FORBES  PTCLDY    63  58  83 E3        29.96R
6HR MIN TEMP:  63; 6HR MAX TEMP:  76;

$$


USA.gov is the U.S. government's official web portal to all federal, state and local government web resources and services.